Location: Cossonay
(46.5833°N, 6.4167°E)
Time: 21:27:51
(UTC+00:00)

CBERS-1 - Pass Details

Date: 03 October 2020
Orbit: 770 x 777 km, 98.6° (Epoch: 22 October)

Event Time Altitude Azimuth Distance (km) Brightness Sun altitude
Rises 04:02:10 0° 356° (N) 3,259 7.4 -16.9°
Reaches altitude 10° 04:07:15 10° 312° (NW) 2,327 6.1 -16.0°
Enters shadow 04:07:19 10° 311° (NW) 2,325 6.1 -16.0°
